Home > Weather > Walsrode > Past weeks

Flag for Germany Past Weather in Walsrode, Lower Saxony, Germany — Yesterday and Last 2 Weeks

Now
68 °F

Partly sunny.


Feels Like: 68 °F
Forecast: 60 / 78 °F
Wind: 7 mph from North

Location: Fassberg

Current Time: May 29, 2016 at 7:21:48 PM

Latest Report: May 29, 2016 at 6:20 PM


Visibility: 4 mi

Pressure: 29.74 "Hg

Humidity: 83%

Dew Point: 63 °F

Location of WalsrodeLocation

Past Weather in Walsrode — Graph

°F

Walsrode Temperature Yesterday

Maximum temperature yesterday: 72 °F (at 1:20 PM)
Minimum temperature yesterday: 50 °F (at 5:20 AM)
Average temperature yesterday: 62 °F

High & Low Weather Summary for the Past Weeks

 TemperatureHumidityPressure
High82 °F (May 22, 2:20 PM)100% (May 18, 4:20 AM)30.04 "Hg (May 18, 4:20 AM)
Low34 °F (May 18, 4:20 AM)30% (May 22, 2:20 PM)29.71 "Hg (May 22, 2:20 PM)
Average56 °F76%29.92 "Hg
* Reported May 14 5:20 PM — May 29 5:20 PM, Walsrode, Weather by CustomWeather, © 2016

Note: Actual official high and low records may vary slightly from our data, if they occured in-between our weather recording intervals... More about our weather records

Advertising

Walsrode Weather History for the Previous 24 Hours

Scroll right to see more
 ConditionsComfort  
Time TempWeatherWind HumidityBarometerVisibility
5:20 PM
Sun, May 29
68 °FBroken clouds.8 mph83%29.74 "Hg4 mi
4:20 PM68 °FBroken clouds.7 mph83%29.77 "Hg4 mi
3:20 PM64 °FBroken clouds.6 mph88%29.77 "Hg4 mi
2:20 PM61 °FFog.7 mph94%29.77 "Hg2 mi
2:04 PM61 °FFog.7 mph94%29.77 "Hg2 mi
1:20 PM59 °FPartly sunny.10 mph94%29.80 "Hg4 mi
12:20 PM57 °FHeavy rain. Fog.9 mph94%29.80 "Hg1 mi
12:00 PM57 °FDrizzle. Fog.13 mph100%29.80 "Hg2 mi
11:20 AM57 °FHeavy rain. Fog.15 mph94%29.80 "Hg1 mi
10:20 AM57 °FThunderstorms. Fog.13 mph94%29.80 "Hg1 mi
9:20 AM57 °FRain. Fog.8 mph94%29.83 "Hg1 mi
8:20 AM57 °FDrizzle. Fog.6 mph94%29.83 "Hg2 mi
7:20 AM57 °FDrizzle. Fog.9 mph88%29.83 "Hg2 mi
6:20 AM55 °FPartly sunny.10 mph94%29.83 "Hg5 mi
5:20 AM55 °FPartly cloudy.9 mph94%29.86 "Hg6 mi
4:20 AM57 °FPartly cloudy.8 mph88%29.86 "HgN/A
3:20 AM57 °FMostly cloudy.7 mph88%29.89 "HgN/A
2:20 AM59 °FOvercast.9 mph88%29.89 "HgN/A
1:20 AM59 °FOvercast.7 mph88%29.89 "HgN/A
12:20 AM61 °FOvercast.8 mph83%29.92 "HgN/A
11:20 PM
Sat, May 28
61 °FPassing clouds.8 mph83%29.92 "HgN/A
10:20 PM63 °FPartly sunny.7 mph73%29.92 "HgN/A
9:20 PM64 °FPartly sunny.6 mph64%29.92 "HgN/A
8:20 PM68 °FPartly sunny.7 mph56%29.92 "HgN/A
7:20 PM72 °FScattered clouds.9 mph47%29.92 "HgN/A
Weather by CustomWeather, © 2016

See weather overviewHow to use our weather pages